timestamp,surface_pressure_avg,surface_temp_avg,battery_voltage,lat,long
2017-11-11 00:00:00+00:00,243.4565,9.72,12.81,47.84626,-54.09684
2017-11-11 00:10:00+00:00,242.933,9.73,12.73,47.84626,-54.09684
2017-11-11 00:20:00+00:00,241.6714,9.7,12.81,47.84626,-54.09684
2017-11-11 00:30:00+00:00,252.1831,9.7,12.81,47.84626,-54.09684
2017-11-11 00:40:00+00:00,253.6214,9.7,12.81,47.84626,-54.09684
2017-11-11 00:50:00+00:00,239.4981,9.6,12.81,47.84626,-54.09684
2017-11-11 01:00:00+00:00,227.9647,9.6,12.81,47.84626,-54.09684
2017-11-11 01:10:00+00:00,241.2331,9.6,12.73,47.84626,-54.09684
2017-11-11 01:20:00+00:00,244.7931,9.6,12.81,47.84626,-54.09684
2017-11-11 01:30:00+00:00,237.3531,9.5,12.81,47.84626,-54.09684
2017-11-11 01:40:00+00:00,248.0481,9.53,12.81,47.84626,-54.09684
2017-11-11 01:50:00+00:00,267.7531,9.58,12.81,47.84626,-54.09684
2017-11-11 02:00:00+00:00,267.8547,9.6,12.81,47.84626,-54.09684
2017-11-11 02:10:00+00:00,269.6263,9.6,12.73,47.84626,-54.09684
2017-11-11 02:20:00+00:00,287.5147,9.6,12.81,47.84626,-54.09684
2017-11-11 02:30:00+00:00,293.5381,9.6,12.81,47.84626,-54.09684
2017-11-11 02:40:00+00:00,283.5181,9.6,12.81,47.84626,-54.09684
2017-11-11 02:50:00+00:00,289.4197,9.58,12.81,47.84626,-54.09684
2017-11-11 03:00:00+00:00,300.7313,9.59,12.81,47.84626,-54.09684
2017-11-11 03:10:00+00:00,302.4064,9.57,12.73,47.84626,-54.09684
2017-11-11 03:20:00+00:00,305.3347,9.5,12.81,47.84626,-54.09684
2017-11-11 03:30:00+00:00,318.198,9.53,12.81,47.84626,-54.09684
2017-11-11 03:40:00+00:00,330.7279,9.53,12.81,47.84626,-54.09684
2017-11-11 03:50:00+00:00,327.7062,9.5,12.81,47.84626,-54.09684
2017-11-11 04:00:00+00:00,329.1597,9.5,12.73,47.84626,-54.09684
2017-11-11 04:10:00+00:00,331.6713,9.4,12.73,47.84626,-54.09684
2017-11-11 04:20:00+00:00,336.1046,9.4,12.81,47.84626,-54.09684
2017-11-11 04:30:00+00:00,335.3997,9.4,12.81,47.84626,-54.09684
2017-11-11 04:40:00+00:00,335.418,9.4,12.81,47.84626,-54.09684
2017-11-11 04:50:00+00:00,334.7047,9.38,12.81,47.84626,-54.09684
2017-11-11 05:00:00+00:00,336.303,9.36,12.73,47.84626,-54.09684
2017-11-11 05:10:00+00:00,338.033,9.31,12.73,47.84626,-54.09684
2017-11-11 05:20:00+00:00,339.2214,9.31,12.81,47.84626,-54.09684
2017-11-11 05:30:00+00:00,344.1612,9.3,12.81,47.84626,-54.09684
2017-11-11 05:40:00+00:00,346.528,9.3,12.81,47.84626,-54.09684
2017-11-11 05:50:00+00:00,345.4563,9.3,12.81,47.84626,-54.09684
2017-11-11 06:00:00+00:00,346.158,9.28,12.73,47.84626,-54.09684
2017-11-11 06:10:00+00:00,354.7413,9.3,12.73,47.84626,-54.09684
2017-11-11 06:20:00+00:00,357.8629,9.3,12.81,47.84626,-54.09684
2017-11-11 06:30:00+00:00,347.2163,9.29,12.81,47.84626,-54.09684
2017-11-11 06:40:00+00:00,349.2614,9.26,12.81,47.84626,-54.09684
2017-11-11 06:50:00+00:00,351.7463,9.24,12.81,47.84626,-54.09684
2017-11-11 07:00:00+00:00,336.2596,9.2,12.73,47.84626,-54.09684
2017-11-11 07:10:00+00:00,319.608,9.2,12.73,47.84626,-54.09684
2017-11-11 07:20:00+00:00,315.1997,9.2,12.81,47.84626,-54.09684
2017-11-11 07:30:00+00:00,313.6847,9.2,12.81,47.84626,-54.09684
2017-11-11 07:40:00+00:00,292.3064,9.2,12.81,47.84626,-54.09684
2017-11-11 07:50:00+00:00,280.1447,9.2,12.81,47.84626,-54.09684
2017-11-11 08:00:00+00:00,280.9514,9.21,12.73,47.84626,-54.09684
2017-11-11 08:10:00+00:00,269.3797,9.23,12.73,47.84626,-54.09684
2017-11-11 08:20:00+00:00,244.0264,9.26,12.81,47.84626,-54.09684
2017-11-11 08:30:00+00:00,238.4015,9.29,12.81,47.84626,-54.09684
2017-11-11 08:40:00+00:00,241.3414,9.29,12.81,47.84626,-54.09684
2017-11-11 08:50:00+00:00,223.3298,9.29,12.81,47.84626,-54.09684
2017-11-11 09:00:00+00:00,200.8214,9.29,12.73,47.84626,-54.09684
2017-11-11 09:10:00+00:00,201.5098,9.3,12.73,47.84626,-54.09684
2017-11-11 09:20:00+00:00,205.8282,9.29,12.81,47.84626,-54.09684
2017-11-11 09:30:00+00:00,197.8031,9.29,12.81,47.84626,-54.09684
2017-11-11 09:40:00+00:00,190.7598,9.3,12.81,47.84626,-54.09684
2017-11-11 09:50:00+00:00,198.0748,9.31,12.81,47.84626,-54.09684
2017-11-11 10:00:00+00:00,200.7548,9.38,12.73,47.84626,-54.09684
2017-11-11 10:10:00+00:00,191.3214,9.38,12.73,47.84626,-54.09684
2017-11-11 10:20:00+00:00,185.1664,9.39,12.81,47.84626,-54.09684
2017-11-11 10:30:00+00:00,192.0281,9.4,12.81,47.84626,-54.09684
2017-11-11 10:40:00+00:00,197.7715,9.4,12.81,47.84626,-54.09684
2017-11-11 10:50:00+00:00,192.8047,9.4,12.81,47.84626,-54.09684
2017-11-11 11:00:00+00:00,193.3064,9.4,12.73,47.84626,-54.09684
2017-11-11 11:10:00+00:00,198.8065,9.4,12.73,47.84626,-54.09684
2017-11-11 11:20:00+00:00,197.0631,9.4,12.81,47.84626,-54.09684
2017-11-11 11:30:00+00:00,198.6981,9.4,12.81,47.84626,-54.09684
2017-11-11 11:40:00+00:00,207.4664,9.4,12.81,47.84626,-54.09684
2017-11-11 11:50:00+00:00,203.1331,9.4,12.81,47.84626,-54.09684
2017-11-11 12:00:00+00:00,198.5764,9.4,12.81,47.84626,-54.09684
2017-11-11 12:10:00+00:00,207.8348,9.4,12.73,47.84626,-54.09684
2017-11-11 12:20:00+00:00,212.6248,9.3,12.81,47.84626,-54.09684
2017-11-11 12:30:00+00:00,205.0348,9.33,12.81,47.84626,-54.09684
2017-11-11 12:40:00+00:00,204.7198,9.37,13.13,47.84626,-54.09684
2017-11-11 12:50:00+00:00,216.6248,9.3,13.21,47.84626,-54.09684
2017-11-11 13:00:00+00:00,220.6014,9.3,13.84,47.84626,-54.09684
2017-11-11 13:10:00+00:00,213.6481,9.3,13.44,47.84626,-54.09684
2017-11-11 13:20:00+00:00,212.5581,9.3,13.53,47.84626,-54.09684
2017-11-11 13:30:00+00:00,221.2198,9.29,13.44,47.84626,-54.09684
2017-11-11 13:40:00+00:00,224.6165,9.29,13.37,47.84626,-54.09684
2017-11-11 13:50:00+00:00,224.2881,9.29,13.29,47.84626,-54.09684
2017-11-11 14:00:00+00:00,231.3865,9.28,13.21,47.84626,-54.09684
2017-11-11 14:10:00+00:00,240.7781,9.2,13.05,47.84626,-54.09684
2017-11-11 14:20:00+00:00,243.4531,9.22,13.13,47.84626,-54.09684
2017-11-11 14:30:00+00:00,246.0681,9.23,13.21,47.84626,-54.09684
2017-11-11 14:40:00+00:00,254.5181,9.23,13.21,47.84626,-54.09684
2017-11-11 14:50:00+00:00,263.1231,9.2,13.21,47.84626,-54.09684
2017-11-11 15:00:00+00:00,264.7014,9.2,13.13,47.84626,-54.09684
2017-11-11 15:10:00+00:00,270.0364,9.2,13.05,47.84626,-54.09684
2017-11-11 15:20:00+00:00,277.0647,9.2,13.13,47.84626,-54.09684
2017-11-11 15:30:00+00:00,285.6447,9.19,13.05,47.84626,-54.09684
2017-11-11 15:40:00+00:00,290.5997,9.16,13.05,47.84626,-54.09684
2017-11-11 15:50:00+00:00,296.2064,9.18,13.05,47.84626,-54.09684
2017-11-11 16:00:00+00:00,302.4314,9.18,13.05,47.84626,-54.09684
2017-11-11 16:10:00+00:00,311.5496,9.11,12.97,47.84626,-54.09684
2017-11-11 16:20:00+00:00,313.3096,9.12,12.97,47.84626,-54.09684
2017-11-11 16:30:00+00:00,311.873,9.2,12.97,47.84626,-54.09684
2017-11-11 16:40:00+00:00,322.2747,9.2,12.97,47.84626,-54.09684
2017-11-11 16:50:00+00:00,336.1713,9.29,12.97,47.84626,-54.09684
2017-11-11 17:00:00+00:00,335.2063,9.2,12.97,47.84626,-54.09684
2017-11-11 17:10:00+00:00,333.228,9.2,12.89,47.84626,-54.09684
2017-11-11 17:20:00+00:00,341.6713,9.2,13.05,47.84626,-54.09684
2017-11-11 17:30:00+00:00,345.7797,9.2,13.05,47.84626,-54.09684
2017-11-11 17:40:00+00:00,339.2463,9.2,13.37,47.84626,-54.09684
2017-11-11 17:50:00+00:00,339.8214,9.2,13.6,47.84626,-54.09684
2017-11-11 18:00:00+00:00,345.3347,9.14,13.76,47.84626,-54.09684
2017-11-11 18:10:00+00:00,340.2547,9.25,13.44,47.84626,-54.09684
2017-11-11 18:20:00+00:00,335.8079,9.43,13.84,47.84626,-54.09684
2017-11-11 18:30:00+00:00,342.403,9.4,13.68,47.84626,-54.09684
2017-11-11 18:40:00+00:00,343.3513,9.4,13.6,47.84626,-54.09684
2017-11-11 18:50:00+00:00,333.458,9.46,13.44,47.84626,-54.09684
2017-11-11 19:00:00+00:00,333.8746,9.5,13.29,47.84626,-54.09684
2017-11-11 19:10:00+00:00,336.7931,9.46,13.13,47.84626,-54.09684
2017-11-11 19:20:00+00:00,327.7897,9.45,13.21,47.84626,-54.09684
2017-11-11 19:30:00+00:00,320.3113,9.5,13.21,47.84626,-54.09684
2017-11-11 19:40:00+00:00,320.8497,9.44,13.13,47.84626,-54.09684
2017-11-11 19:50:00+00:00,312.588,9.48,13.13,47.84626,-54.09684
2017-11-11 20:00:00+00:00,297.0231,9.5,13.05,47.84626,-54.09684
2017-11-11 20:10:00+00:00,293.1813,9.5,12.97,47.84626,-54.09684
2017-11-11 20:20:00+00:00,292.5464,9.45,13.05,47.84626,-54.09684
2017-11-11 20:30:00+00:00,283.0547,9.4,13.05,47.84626,-54.09684
2017-11-11 20:40:00+00:00,269.9814,9.4,13.05,47.84626,-54.09684
2017-11-11 20:50:00+00:00,267.3964,9.4,13.05,47.84626,-54.09684
2017-11-11 21:00:00+00:00,266.3364,9.4,12.97,47.84626,-54.09684
2017-11-11 21:10:00+00:00,259.6264,9.39,12.89,47.84626,-54.09684
2017-11-11 21:20:00+00:00,251.9998,9.37,12.97,47.84626,-54.09684
2017-11-11 21:30:00+00:00,249.8964,9.33,12.89,47.84626,-54.09684
2017-11-11 21:40:00+00:00,249.6548,9.3,12.97,47.84626,-54.09684
2017-11-11 21:50:00+00:00,246.8997,9.3,12.97,47.84626,-54.09684
2017-11-11 22:00:00+00:00,244.4431,9.3,12.89,47.84626,-54.09684
2017-11-11 22:10:00+00:00,245.1014,9.3,12.81,47.84626,-54.09684
2017-11-11 22:20:00+00:00,246.1681,9.3,12.89,47.84626,-54.09684
2017-11-11 22:30:00+00:00,245.2514,9.3,12.89,47.84626,-54.09684
2017-11-11 22:40:00+00:00,248.4497,9.3,12.89,47.84626,-54.09684
2017-11-11 22:50:00+00:00,248.8298,9.3,12.89,47.84626,-54.09684
2017-11-11 23:00:00+00:00,248.2464,9.3,12.81,47.84626,-54.09684
2017-11-11 23:10:00+00:00,252.1431,9.3,12.73,47.84626,-54.09684
2017-11-11 23:20:00+00:00,254.1031,9.3,12.81,47.84626,-54.09684
2017-11-11 23:30:00+00:00,243.6097,9.3,12.81,47.84626,-54.09684
2017-11-11 23:40:00+00:00,242.7148,9.29,12.81,47.84626,-54.09684
2017-11-11 23:50:00+00:00,248.2098,9.28,12.81,47.84626,-54.09684
